• en Suisse
  • Liste des pays
  • À 7 jours
  • Température de l'eau
  • Carte satellitaire
  • Carte météo
  • Widgets météo
  • user-avatar
    Se connecter

    Météo par heure à Krasnodvorsk

    Ce jour, 25 Septembre, Mardi

    Heure Température Précipitation Vent Pression Humidité
    00:00 +20°C° 0 mm 5 m/s 757 mmHg 69%
    01:00 +20°C° 0 mm 5 m/s 757 mmHg 72%
    02:00 +20°C° 0 mm 4 m/s 757 mmHg 75%
    03:00 +19°C° 0 mm 3 m/s 756 mmHg 77%
    04:00 +19°C° 0 mm 3 m/s 756 mmHg 78%
    05:00 +19°C° 0 mm 4 m/s 756 mmHg 79%
    06:00 +19°C° 0 mm 4 m/s 756 mmHg 81%
    07:00 +20°C° 0 mm 5 m/s 756 mmHg 79%
    08:00 +20°C° 0 mm 5 m/s 757 mmHg 77%
    09:00 +20°C° 0 mm 5 m/s 757 mmHg 76%
    10:00 +19°C° 0.1 mm 6 m/s 758 mmHg 74%
    11:00 +17°C° 0.1 mm 6 m/s 758 mmHg 72%
    12:00 +16°C° 0.1 mm 6 m/s 759 mmHg 70%
    13:00 +15°C° 0 mm 5 m/s 760 mmHg 69%
    14:00 +15°C° 0 mm 5 m/s 760 mmHg 68%
    15:00 +15°C° 0 mm 4 m/s 761 mmHg 67%
    16:00 +14°C° 0.1 mm 4 m/s 761 mmHg 67%
    17:00 +14°C° 0.1 mm 4 m/s 762 mmHg 68%
    18:00 +14°C° 0.1 mm 3 m/s 762 mmHg 68%
    19:00 +13°C° 0.1 mm 3 m/s 762 mmHg 69%
    20:00 +13°C° 0.1 mm 3 m/s 763 mmHg 70%
    21:00 +13°C° 0.1 mm 3 m/s 763 mmHg 71%
    22:00 +13°C° 0 mm 3 m/s 764 mmHg 72%
    23:00 +12°C° 0 mm 3 m/s 764 mmHg 72%

    Demain, 26 Septembre, Mercredi

    Heure Température Précipitation Vent Pression Humidité
    00:00 +12°C° 0 mm 3 m/s 764 mmHg 73%
    01:00 +11°C° 0 mm 3 m/s 765 mmHg 74%
    02:00 +12°C° 0 mm 2 m/s 765 mmHg 76%
    03:00 +10°C° 0 mm 2 m/s 765 mmHg 77%
    04:00 +10°C° 0 mm 2 m/s 766 mmHg 78%
    05:00 +9°C° 0 mm 2 m/s 766 mmHg 79%
    06:00 +9°C° 0 mm 2 m/s 766 mmHg 80%
    07:00 +10°C° 0 mm 3 m/s 767 mmHg 73%
    08:00 +12°C° 0 mm 3 m/s 767 mmHg 65%
    09:00 +13°C° 0 mm 4 m/s 768 mmHg 58%
    10:00 +14°C° 0 mm 4 m/s 768 mmHg 53%
    11:00 +15°C° 0 mm 4 m/s 768 mmHg 48%
    12:00 +17°C° 0 mm 3 m/s 769 mmHg 43%
    13:00 +17°C° 0 mm 3 m/s 769 mmHg 43%
    14:00 +17°C° 0 mm 3 m/s 769 mmHg 42%
    15:00 +17°C° 0 mm 3 m/s 769 mmHg 42%
    16:00 +16°C° 0 mm 3 m/s 769 mmHg 42%
    17:00 +16°C° 0 mm 3 m/s 769 mmHg 43%
    18:00 +14°C° 0 mm 3 m/s 770 mmHg 44%
    19:00 +14°C° 0 mm 3 m/s 770 mmHg 45%
    20:00 +13°C° 0 mm 3 m/s 771 mmHg 47%
    21:00 +12°C° 0 mm 3 m/s 771 mmHg 48%
    22:00 +11°C° 0 mm 3 m/s 771 mmHg 49%
    23:00 +11°C° 0 mm 3 m/s 771 mmHg 51%

    Après-demain, 27 Septembre, Jeudi

    Heure Température Précipitation Vent Pression Humidité
    00:00 +10°C° 0 mm 3 m/s 771 mmHg 53%
    01:00 +9°C° 0 mm 3 m/s 771 mmHg 54%
    02:00 +9°C° 0 mm 2 m/s 772 mmHg 56%
    03:00 +8°C° 0 mm 2 m/s 772 mmHg 57%
    04:00 +8°C° 0 mm 2 m/s 771 mmHg 58%
    05:00 +8°C° 0 mm 2 m/s 771 mmHg 59%
    06:00 +8°C° 0 mm 1 m/s 771 mmHg 61%
    07:00 +9°C° 0 mm 2 m/s 771 mmHg 56%
    08:00 +10°C° 0 mm 2 m/s 771 mmHg 51%
    09:00 +13°C° 0 mm 2 m/s 771 mmHg 45%
    10:00 +13°C° 0 mm 3 m/s 771 mmHg 41%
    11:00 +14°C° 0 mm 4 m/s 770 mmHg 36%
    12:00 +16°C° 0 mm 5 m/s 770 mmHg 31%
    13:00 +16°C° 0 mm 5 m/s 769 mmHg 30%
    14:00 +16°C° 0 mm 6 m/s 769 mmHg 29%
    15:00 +16°C° 0 mm 6 m/s 768 mmHg 29%
    16:00 +16°C° 0 mm 6 m/s 768 mmHg 32%
    17:00 +15°C° 0 mm 5 m/s 768 mmHg 35%
    18:00 +14°C° 0 mm 5 m/s 768 mmHg 38%
    19:00 +13°C° 0 mm 5 m/s 768 mmHg 41%
    20:00 +13°C° 0 mm 5 m/s 768 mmHg 44%
    21:00 +12°C° 0 mm 5 m/s 768 mmHg 47%
    22:00 +12°C° 0 mm 5 m/s 768 mmHg 47%
    23:00 +12°C° 0 mm 5 m/s 768 mmHg 46%

    28 Septembre, Vendredi

    Heure Température Précipitation Vent Pression Humidité
    00:00 +12°C° 0 mm 5 m/s 767 mmHg 46%
    01:00 +12°C° 0 mm 4 m/s 767 mmHg 47%
    02:00 +12°C° 0 mm 4 m/s 767 mmHg 47%
    03:00 +12°C° 0 mm 4 m/s 767 mmHg 48%
    04:00 +12°C° 0 mm 4 m/s 767 mmHg 49%
    05:00 +11°C° 0 mm 3 m/s 767 mmHg 50%
    06:00 +11°C° 0 mm 3 m/s 767 mmHg 51%
    07:00 +13°C° 0 mm 3 m/s 767 mmHg 49%
    08:00 +14°C° 0 mm 4 m/s 767 mmHg 47%
    09:00 +15°C° 0 mm 4 m/s 767 mmHg 45%
    10:00 +18°C° 0 mm 4 m/s 767 mmHg 43%
    11:00 +19°C° 0 mm 4 m/s 766 mmHg 42%
    12:00 +20°C° 0 mm 4 m/s 766 mmHg 40%
    13:00 +21°C° 0 mm 4 m/s 766 mmHg 40%
    14:00 +21°C° 0 mm 5 m/s 765 mmHg 40%
    15:00 +22°C° 0 mm 5 m/s 765 mmHg 40%
    16:00 +21°C° 0 mm 4 m/s 764 mmHg 43%
    17:00 +20°C° 0 mm 4 m/s 764 mmHg 46%
    18:00 +19°C° 0 mm 3 m/s 764 mmHg 49%
    19:00 +18°C° 0 mm 3 m/s 764 mmHg 53%
    20:00 +17°C° 0 mm 3 m/s 764 mmHg 57%
    21:00 +16°C° 0 mm 3 m/s 764 mmHg 62%
    22:00 +16°C° 0 mm 3 m/s 764 mmHg 65%
    23:00 +15°C° 0 mm 2 m/s 764 mmHg 68%

    29 Septembre, Samedi

    Heure Température Précipitation Vent Pression Humidité
    00:00 +15°C° 0 mm 2 m/s 764 mmHg 72%
    01:00 +15°C° 0 mm 2 m/s 764 mmHg 74%
    02:00 +14°C° 0 mm 2 m/s 764 mmHg 76%
    03:00 +14°C° 0 mm 2 m/s 763 mmHg 78%
    04:00 +14°C° 0 mm 2 m/s 763 mmHg 79%
    05:00 +14°C° 0 mm 2 m/s 763 mmHg 79%
    06:00 +13°C° 0 mm 2 m/s 763 mmHg 80%
    07:00 +15°C° 0 mm 2 m/s 763 mmHg 73%
    08:00 +16°C° 0 mm 2 m/s 763 mmHg 67%
    09:00 +18°C° 0 mm 2 m/s 763 mmHg 60%
    10:00 +19°C° 0 mm 2 m/s 763 mmHg 54%
    11:00 +21°C° 0 mm 2 m/s 763 mmHg 49%
    12:00 +24°C° 0 mm 2 m/s 762 mmHg 43%
    13:00 +24°C° 0 mm 2 m/s 762 mmHg 41%
    14:00 +25°C° 0 mm 2 m/s 761 mmHg 40%
    15:00 +25°C° 0 mm 3 m/s 761 mmHg 38%
    16:00 +24°C° 0 mm 2 m/s 761 mmHg 41%
    17:00 +23°C° 0 mm 2 m/s 761 mmHg 44%
    18:00 +21°C° 0 mm 2 m/s 761 mmHg 47%
    19:00 +20°C° 0 mm 2 m/s 761 mmHg 50%
    20:00 +20°C° 0 mm 2 m/s 761 mmHg 53%
    21:00 +19°C° 0 mm 2 m/s 762 mmHg 57%
    22:00 +18°C° 0 mm 2 m/s 762 mmHg 59%
    23:00 +19°C° 0 mm 1 m/s 761 mmHg 62%

    30 Septembre, Dimanche

    Heure Température Précipitation Vent Pression Humidité
    00:00 +18°C° 0 mm 1 m/s 761 mmHg 64%
    01:00 +18°C° 0 mm 1 m/s 762 mmHg 65%
    02:00 +18°C° 0 mm 1 m/s 762 mmHg 67%
    03:00 +18°C° 0 mm 1 m/s 762 mmHg 68%
    04:00 +18°C° 0 mm 1 m/s 762 mmHg 70%
    05:00 +16°C° 0 mm 1 m/s 762 mmHg 71%
    06:00 +16°C° 0 mm 2 m/s 763 mmHg 73%
    07:00 +17°C° 0 mm 2 m/s 763 mmHg 69%
    08:00 +18°C° 0 mm 3 m/s 763 mmHg 65%
    09:00 +19°C° 0 mm 4 m/s 764 mmHg 62%
    10:00 +20°C° 0 mm 4 m/s 764 mmHg 57%
    11:00 +22°C° 0 mm 4 m/s 764 mmHg 52%
    12:00 +23°C° 0 mm 4 m/s 764 mmHg 47%
    13:00 +23°C° 0 mm 4 m/s 764 mmHg 45%
    14:00 +25°C° 0 mm 4 m/s 764 mmHg 44%
    15:00 +25°C° 0 mm 4 m/s 764 mmHg 42%
    16:00 +23°C° 0 mm 4 m/s 764 mmHg 45%
    17:00 +22°C° 0 mm 4 m/s 765 mmHg 47%
    18:00 +21°C° 0 mm 4 m/s 765 mmHg 50%
    19:00 +20°C° 0 mm 5 m/s 765 mmHg 52%
    20:00 +19°C° 0 mm 6 m/s 765 mmHg 55%
    21:00 +16°C° 0 mm 6 m/s 766 mmHg 57%
    22:00 +16°C° 0 mm 6 m/s 766 mmHg 57%
    23:00 +15°C° 0 mm 6 m/s 766 mmHg 58%
    Voir plus